Location: Cointrin
(46.2167°N, 6.1167°E)
Time: 19:48:31
(UTC+00:00)

Cosmos 2237 Rocket - Visible Passes

Search period start: 01 October 2023 00:00
Search period end: 11 October 2023 00:00
Orbit: 833 x 851 km, 71.0° (Epoch: 01 October)

Date Brightness Start Highest point End Pass type
(mag) Time Alt. Az. Time Alt. Az. Time Alt. Az.
01 Oct 4.3 03:06:05 10° N 03:10:47 26° NE 03:15:28 10° ESE visible
01 Oct 2.2 04:49:41 10° NNW 04:55:19 63° WSW 05:00:52 10° S visible
01 Oct 3.0 18:00:33 10° SSE 18:05:15 27° ESE 18:09:59 10° NE visible
01 Oct 3.0 19:43:28 10° SW 19:48:59 51° WNW 19:54:35 10° NNE visible
01 Oct 5.1 21:32:07 10° WNW 21:34:30 12° NW 21:36:52 10° N visible
02 Oct 4.4 02:51:09 10° N 02:55:47 25° NE 03:00:23 10° ESE visible
02 Oct 2.2 04:34:41 10° NNW 04:40:20 66° WSW 04:45:56 10° SSE visible
02 Oct 3.1 17:45:41 10° SSE 17:50:18 26° ESE 17:54:57 10° NE visible
02 Oct 2.9 19:28:27 10° SW 19:34:00 54° WNW 19:39:37 10° NNE visible
02 Oct 5.1 21:16:54 10° WNW 21:19:27 13° NW 21:22:00 10° N visible
03 Oct 4.4 02:36:12 10° N 02:40:46 24° NE 02:45:16 10° E visible
03 Oct 2.1 04:19:42 10° NNW 04:25:22 69° WSW 04:30:59 10° SSE visible
03 Oct 2.9 19:13:26 10° SW 19:19:01 56° WNW 19:24:39 10° NNE visible
03 Oct 5.1 21:01:42 10° WNW 21:04:25 13° NW 21:07:08 10° N visible
04 Oct 4.4 02:21:17 10° N 02:25:45 23° NE 02:30:11 10° E visible
04 Oct 2.1 04:04:43 10° NNW 04:10:24 73° WSW 04:16:02 10° SSE visible
04 Oct 2.8 18:58:25 10° SW 19:04:02 59° WNW 19:09:42 10° NNE visible
04 Oct 5.0 20:46:31 10° WNW 20:49:23 14° NW 20:52:16 10° N visible
05 Oct 4.4 02:06:21 10° N 02:10:44 22° NE 02:15:05 10° E visible
05 Oct 2.1 03:49:44 10° NNW 03:55:26 76° WSW 04:01:04 10° SSE visible
05 Oct 2.7 18:43:25 10° SW 18:49:03 61° WNW 18:54:44 10° NNE visible
05 Oct 5.0 20:31:21 10° WNW 20:34:21 14° NW 20:37:23 10° N visible
06 Oct 4.4 01:51:25 10° N 01:55:44 21° NE 01:59:59 10° E visible
06 Oct 2.1 03:34:46 10° NNW 03:40:28 80° WSW 03:46:07 10° SSE visible
06 Oct 2.7 18:28:25 10° SW 18:34:04 64° WNW 18:39:46 10° NNE visible
06 Oct 5.0 20:16:10 10° WNW 20:19:20 15° NW 20:22:29 10° N visible
07 Oct 4.5 01:36:30 10° N 01:40:43 21° NE 01:44:53 10° E visible
07 Oct 2.0 03:19:47 10° NNW 03:25:30 83° WSW 03:31:09 10° SSE visible
07 Oct 3.8 05:06:15 10° WNW 05:08:37 13° W 05:10:58 10° WSW visible
07 Oct 2.6 18:13:26 10° SW 18:19:06 67° WNW 18:24:48 10° NNE visible
07 Oct 4.9 20:01:02 10° WNW 20:04:18 15° NW 20:07:36 10° N visible
08 Oct 4.5 01:21:34 10° N 01:25:41 20° NE 01:29:46 10° E visible
08 Oct 2.0 03:04:49 10° NNW 03:10:32 87° WSW 03:16:12 10° SSE visible
08 Oct 3.7 04:51:03 10° WNW 04:53:41 13° W 04:56:19 10° SW visible
08 Oct 2.6 17:58:27 10° SW 18:04:07 70° WNW 18:09:51 10° NNE visible
08 Oct 4.9 19:45:53 10° WNW 19:49:17 16° NW 19:52:42 10° N visible
09 Oct 5.0 01:06:39 10° N 01:16:44 - E 01:06:41 10° N visible
09 Oct 3.6 02:58:50 27° SSE 02:58:50 27° SSE 03:01:14 10° SSE visible
09 Oct 4.0 04:40:55 12° WSW 04:40:55 12° WSW 04:41:38 10° SW visible
09 Oct 2.5 17:43:28 10° SSW 17:49:09 73° WNW 17:54:53 10° NNE visible
09 Oct 4.9 19:30:44 10° WNW 19:34:15 16° NW 19:37:48 10° N visible
10 Oct5.002:47:26SSE02:47:26SSE02:32:28NNWvisible
10 Oct 2.5 17:28:29 10° SSW 17:34:11 77° WNW 17:39:55 10° NNE visible
10 Oct 4.8 19:15:36 10° W 19:19:14 17° NW 19:22:53 10° N visible
